| time (UTC) | temp F | wind direction | speed MPH | gust MPH | rain 1hr in | rain 24hr in | rain mn in | humidity % | barometer mb |
| 20260903074515 | 61 | 221 | 0.0 | 0.0 | 0.00 | 0.00 | 0.00 | 66 | 1003.4 |
| 20260903073011 | 62 | 221 | 0.0 | 0.0 | 0.00 | 0.00 | 0.00 | 67 | 1003.6 |
| 20260903071508 | 63 | 221 | 0.0 | 0.0 | 0.00 | 0.00 | 0.00 | 66 | 1003.6 |
| 20260903070013 | 63 | 221 | 0.0 | 0.0 | 0.00 | 0.00 | 0.00 | 65 | 1003.8 |
| 20260903064503 | 64 | 221 | 0.0 | 0.0 | 0.00 | 0.00 | 0.00 | 64 | 1004.0 |
| 20260903063000 | 64 | 218 | 0.0 | 0.0 | 0.00 | 0.00 | 0.00 | 64 | 1004.0 |
| 20260903061608 | 64 | 206 | 0.0 | 0.0 | 0.00 | 0.00 | 0.00 | 64 | 1004.0 |
| 20260903060058 | 65 | 206 | 0.0 | 0.0 | 0.00 | 0.00 | 0.00 | 64 | 1003.9 |
| 20260903054602 | 65 | 206 | 0.0 | 0.0 | 0.00 | 0.00 | 0.00 | 63 | 1004.0 |
| 20260903053056 | 65 | 206 | 0.0 | 0.0 | 0.00 | 0.00 | 0.00 | 63 | 1003.8 |
| 20260903051556 | 65 | 192 | 0.0 | 0.0 | 0.00 | 0.00 | 0.00 | 62 | 1003.7 |
| 20260903050154 | 65 | 192 | 0.0 | 0.0 | 0.00 | 0.00 | 0.00 | 63 | 1003.6 |
| 20260903044558 | 66 | 61 | 0.0 | 0.0 | 0.00 | 0.00 | 0.00 | 63 | 1003.6 |
| 20260903043054 | 66 | 61 | 0.0 | 0.0 | 0.00 | 0.00 | 0.00 | 61 | 1004.5 |
| 20260903041609 | 67 | 61 | 0.0 | 0.0 | 0.00 | 0.00 | 0.00 | 57 | 1004.3 |
| 20260903040053 | 67 | 61 | 0.0 | 0.0 | 0.00 | 0.00 | 0.00 | 56 | 1004.4 |
| 20260903034552 | 68 | 61 | 0.0 | 0.0 | 0.00 | 0.00 | 0.00 | 55 | 1004.2 |
| 20260903033052 | 70 | 62 | 0.0 | 0.0 | 0.00 | 0.00 | 0.00 | 51 | 1004.2 |
| 20260903031551 | 71 | 62 | 0.0 | 0.0 | 0.00 | 0.00 | 0.00 | 48 | 1004.0 |
| 20260903030051 | 72 | 62 | 0.0 | 0.0 | 0.00 | 0.00 | 0.00 | 47 | 1003.8 |
| 20260903024551 | 74 | 315 | 0.0 | 0.0 | 0.00 | 0.00 | 0.00 | 45 | 1003.8 |
| 20260903023050 | 75 | 340 | 0.0 | 0.0 | 0.00 | 0.00 | 0.00 | 42 | 1003.9 |
| 20260903021551 | 75 | 5 | 0.0 | 0.0 | 0.00 | 0.00 | 0.00 | 39 | 1002.8 |
| 20260903020053 | 76 | 5 | 0.0 | 0.0 | 0.00 | 0.00 | 0.00 | 38 | 1002.6 |
| 20260903014610 | 76 | 316 | 0.0 | 0.0 | 0.00 | 0.00 | 0.00 | 36 | 1002.5 |
| 20260903013100 | 77 | 24 | 0.0 | 0.0 | 0.00 | 0.00 | 0.00 | 34 | 1002.3 |
| 20260903011613 | 78 | 348 | 0.0 | 0.0 | 0.00 | 0.00 | 0.00 | 34 | 1002.3 |
| 20260903010104 | 79 | 317 | 0.0 | 0.0 | 0.00 | 0.00 | 0.00 | 32 | 1002.1 |
| 20260903004547 | 80 | 11 | 0.0 | 0.0 | 0.00 | 0.00 | 0.00 | 31 | 1002.1 |
| 20260903003103 | 82 | 346 | 0.0 | 0.0 | 0.00 | 0.00 | 0.00 | 30 | 1002.0 |
| 20260903001556 | 83 | 283 | 0.0 | 6.0 | 0.00 | 0.00 | 0.00 | 29 | 1002.0 |
| 20260903000048 | 84 | 337 | 1.0 | 9.0 | 0.00 | 0.00 | 0.00 | 27 | 1002.0 |
| 20260902234546 | 85 | 5 | 0.0 | 9.0 | 0.00 | 0.00 | 0.00 | 26 | 1001.9 |
| 20260902233045 | 84 | 248 | 0.0 | 14.0 | 0.00 | 0.00 | 0.00 | 26 | 1002.1 |
| 20260902231548 | 84 | 351 | 2.0 | 11.0 | 0.00 | 0.00 | 0.00 | 28 | 1002.2 |
| 20260902230053 | 84 | 303 | 4.0 | 13.0 | 0.00 | 0.00 | 0.00 | 26 | 1002.2 |
| 20260902223045 | 88 | 194 | 0.0 | 0.0 | 0.00 | 0.00 | 0.00 | 23 | 1002.2 |
| 20260902221542 | 89 | 105 | 0.0 | 2.0 | 0.00 | 0.00 | 0.00 | 22 | 1001.8 |
| 20260902220043 | 90 | 128 | 0.0 | 4.0 | 0.00 | 0.00 | 0.00 | 22 | 1001.8 |
| 20260902214543 | 90 | 114 | 0.0 | 3.0 | 0.00 | 0.01 | 0.00 | 22 | 1002.2 |
| 20260902213037 | 90 | 84 | 0.0 | 3.0 | 0.00 | 0.01 | 0.00 | 21 | 1002.4 |
| 20260902211535 | 90 | 175 | 1.0 | 8.0 | 0.00 | 0.01 | 0.00 | 21 | 1002.7 |
| 20260902210033 | 90 | 120 | 0.0 | 8.0 | 0.00 | 0.01 | 0.00 | 21 | 1002.9 |
| 20260902204529 | 89 | 98 | 0.0 | 7.0 | 0.00 | 0.01 | 0.00 | 21 | 1003.2 |
| 20260902203028 | 88 | 5 | 0.0 | 7.0 | 0.00 | 0.01 | 0.00 | 22 | 1003.5 |
| 20260902201525 | 88 | 90 | 0.0 | 10.0 | 0.00 | 0.01 | 0.00 | 23 | 1003.7 |
| 20260902200025 | 87 | 81 | 0.0 | 5.0 | 0.00 | 0.01 | 0.00 | 24 | 1004.1 |
| 20260902194534 | 86 | 69 | 1.0 | 8.0 | 0.00 | 0.01 | 0.00 | 23 | 1004.4 |
| 20260902193016 | 86 | 100 | 0.0 | 7.0 | 0.00 | 0.01 | 0.00 | 24 | 1004.5 |
| 20260902191514 | 86 | 91 | 0.0 | 10.0 | 0.00 | 0.01 | 0.00 | 25 | 1004.8 |
| 20260902190011 | 85 | 92 | 0.0 | 8.0 | 0.00 | 0.01 | 0.00 | 26 | 1005.0 |
| 20260902184509 | 86 | 99 | 0.0 | 9.0 | 0.00 | 0.01 | 0.00 | 26 | 1005.2 |
| 20260902183006 | 85 | 88 | 0.0 | 4.0 | 0.00 | 0.01 | 0.00 | 26 | 1005.3 |
| 20260902181503 | 85 | 69 | 1.0 | 8.0 | 0.00 | 0.01 | 0.00 | 26 | 1005.8 |
| 20260902180001 | 84 | 65 | 0.0 | 7.0 | 0.00 | 0.01 | 0.00 | 28 | 1005.9 |
| 20260902174604 | 84 | 59 | 0.0 | 7.0 | 0.00 | 0.01 | 0.00 | 26 | 1006.3 |
| 20260902173058 | 83 | 87 | 0.0 | 5.0 | 0.00 | 0.01 | 0.00 | 31 | 1006.4 |
| 20260902171557 | 82 | 105 | 0.0 | 5.0 | 0.00 | 0.01 | 0.00 | 30 | 1006.5 |
| 20260902170051 | 81 | 99 | 0.0 | 8.0 | 0.00 | 0.01 | 0.00 | 33 | 1006.6 |
| 20260902164552 | 80 | 107 | 0.0 | 7.0 | 0.00 | 0.01 | 0.00 | 34 | 1006.9 |
| 20260902163045 | 79 | 123 | 0.0 | 5.0 | 0.00 | 0.01 | 0.00 | 37 | 1006.9 |
| 20260902161542 | 77 | 128 | 0.0 | 4.0 | 0.00 | 0.01 | 0.00 | 39 | 1007.0 |
| 20260902160037 | 76 | 125 | 0.0 | 5.0 | 0.00 | 0.01 | 0.00 | 40 | 1007.3 |
| 20260902154534 | 75 | 168 | 0.0 | 2.0 | 0.00 | 0.01 | 0.00 | 44 | 1007.2 |
| 20260902153129 | 73 | 105 | 0.0 | 3.0 | 0.00 | 0.01 | 0.00 | 47 | 1007.3 |
| 20260902151529 | 71 | 109 | 0.0 | 2.0 | 0.00 | 0.01 | 0.00 | 50 | 1007.2 |
| 20260902150022 | 68 | 153 | 0.0 | 0.0 | 0.00 | 0.01 | 0.00 | 52 | 1007.4 |
| 20260902144519 | 67 | 154 | 0.0 | 0.0 | 0.00 | 0.01 | 0.00 | 53 | 1007.3 |
| 20260902143016 | 64 | 157 | 0.0 | 0.0 | 0.00 | 0.01 | 0.00 | 59 | 1007.3 |
| 20260902141515 | 61 | 168 | 0.0 | 1.0 | 0.00 | 0.01 | 0.00 | 62 | 1007.5 |
| 20260902140016 | 58 | 192 | 0.0 | 0.0 | 0.00 | 0.01 | 0.00 | 69 | 1007.5 |
| 20260902134524 | 56 | 192 | 0.0 | 0.0 | 0.00 | 0.01 | 0.00 | 71 | 1007.6 |
| 20260902133013 | 55 | 192 | 0.0 | 0.0 | 0.00 | 0.01 | 0.00 | 73 | 1007.6 |
| 20260902131511 | 54 | 256 | 0.0 | 5.0 | 0.00 | 0.01 | 0.00 | 72 | 1007.0 |
| 20260902130010 | 54 | 275 | 0.0 | 0.0 | 0.00 | 0.01 | 0.00 | 72 | 1007.0 |
| 20260902124510 | 54 | 296 | 0.0 | 3.0 | 0.00 | 0.01 | 0.00 | 71 | 1006.8 |
| 20260902123006 | 55 | 302 | 0.0 | 0.0 | 0.00 | 0.01 | 0.00 | 69 | 1006.8 |
| 20260902121506 | 55 | 302 | 0.0 | 0.0 | 0.00 | 0.01 | 0.00 | 69 | 1006.7 |
| 20260902120002 | 56 | 309 | 0.0 | 0.0 | 0.00 | 0.01 | 0.00 | 68 | 1006.6 |
| 20260902114559 | 56 | 309 | 0.0 | 0.0 | 0.00 | 0.01 | 0.00 | 68 | 1006.3 |
| 20260902113100 | 56 | 191 | 0.0 | 3.0 | 0.00 | 0.01 | 0.00 | 67 | 1006.4 |
| 20260902111555 | 57 | 254 | 0.0 | 0.0 | 0.00 | 0.01 | 0.00 | 66 | 1006.4 |
| 20260902110100 | 57 | 254 | 0.0 | 0.0 | 0.00 | 0.01 | 0.00 | 65 | 1006.4 |
| 20260902104616 | 57 | 254 | 0.0 | 0.0 | 0.00 | 0.01 | 0.00 | 66 | 1006.2 |
| 20260902103052 | 57 | 254 | 0.0 | 0.0 | 0.00 | 0.01 | 0.00 | 66 | 1006.2 |
| 20260902101551 | 57 | 254 | 0.0 | 0.0 | 0.00 | 0.01 | 0.00 | 65 | 1006.2 |
| 20260902100108 | 57 | 254 | 0.0 | 0.0 | 0.00 | 0.01 | 0.00 | 65 | 1006.1 |
| 20260902094549 | 57 | 254 | 0.0 | 0.0 | 0.00 | 0.01 | 0.00 | 64 | 1006.3 |
| 20260902093050 | 58 | 254 | 0.0 | 0.0 | 0.00 | 0.01 | 0.00 | 64 | 1006.3 |
| 20260902090042 | 59 | 254 | 0.0 | 0.0 | 0.00 | 0.01 | 0.00 | 62 | 1006.2 |
| 20260902084539 | 60 | 254 | 0.0 | 0.0 | 0.00 | 0.02 | 0.00 | 63 | 1006.2 |
| 20260902083036 | 60 | 254 | 0.0 | 0.0 | 0.00 | 0.02 | 0.00 | 61 | 1006.3 |
| 20260902081549 | 61 | 254 | 0.0 | 1.0 | 0.00 | 0.02 | 0.00 | 60 | 1006.3 |
| 20260902080033 | 62 | 254 | 0.0 | 0.0 | 0.00 | 0.02 | 0.00 | 57 | 1006.2 |